sat.trackr.live / text

‹ back to catalog

LEMUR-2-KREMPEL-BRO2

NORAD 63353 · 2025-061C

PAYLOAD ACTIVE UNKNOWN

§ Identity

Operator
Country
US
Launch date
2025-03-26
Launch site
RLLB
Launch vehicle
Mass (kg)
RCS (m²)

Purposes: earth_obs

External: N2YO · Heavens-Above · Gunter

§ Orbital elements

Epoch: 2026-05-24T21:26:13.811424Z

Period
95.12 min
Inclination
97.5678°
Eccentricity
0.0018757
Mean motion
15.13805081 rev/d
Perigee alt
511.7 km
Apogee alt
537.6 km
Semi-major
6,902.7 km
B*
1.9732e-4
RAAN
121.0221°
Arg perigee
342.9199°
Mean anomaly
17.1399°
Rev number
6,408

§ Raw data

LEMUR-2-KREMPEL-BRO21 63353U 25061C   26144.89321541  .00003509  00000+0  19732-3 0  99952 63353  97.5678 121.0221 0018757 342.9199  17.1399 15.13805081 64088

JSON: /api/v1/satellites/63353 · /tle

For live sub-satellite position, see the globe view (requires WebGL).

§ Visibility from observer

Set your observer location to see the next 7 days of passes ≥ 10°. The values pass through the URL so the page stays shareable.

No JS? Fill the form by hand. The geolocation button needs JavaScript.